Time,TemperatureF,DewpointF,PressureIn,WindDirection,WindDirectionDegrees,WindSpeedMPH,WindSpeedGustMPH,Humidity,HourlyPrecipIn,Conditions,Clouds,dailyrainin,SoftwareType,DateUTC
2013-09-06 00:10:00,44.6,40.0,30.17,SE,131,0.0,1.0,83,0.00,,,0.00,weatherlink.com 1.10,2013-09-06 04:10:00,
2013-09-06 00:25:00,44.0,40.0,30.17,SE,131,0.0,1.0,84,0.00,,,0.00,weatherlink.com 1.10,2013-09-06 04:25:00,
2013-09-06 00:40:00,43.6,40.0,30.18,SE,131,0.0,1.0,87,0.00,,,0.00,weatherlink.com 1.10,2013-09-06 04:40:00,
2013-09-06 00:55:00,43.5,40.0,30.18,SE,131,0.0,1.0,88,0.00,,,0.00,weatherlink.com 1.10,2013-09-06 04:55:00,
2013-09-06 01:10:00,43.3,40.0,30.18,SE,131,0.0,1.0,88,0.00,,,0.00,weatherlink.com 1.10,2013-09-06 05:10:00,
2013-09-06 01:25:00,43.1,40.0,30.18,SE,131,0.0,1.0,87,0.00,,,0.00,weatherlink.com 1.10,2013-09-06 05:25:00,
2013-09-06 01:40:00,42.8,39.0,30.18,SE,131,0.0,1.0,87,0.00,,,0.00,weatherlink.com 1.10,2013-09-06 05:40:00,
2013-09-06 01:55:00,42.8,39.0,30.18,SE,131,0.0,0.0,86,0.00,,,0.00,weatherlink.com 1.10,2013-09-06 05:55:00,
2013-09-06 02:10:00,42.9,39.0,30.19,SE,131,0.0,0.0,86,0.00,,,0.00,weatherlink.com 1.10,2013-09-06 06:10:00,
2013-09-06 02:25:00,42.8,39.0,30.19,SE,131,0.0,0.0,86,0.00,,,0.00,weatherlink.com 1.10,2013-09-06 06:25:00,
2013-09-06 02:40:00,43.1,39.0,30.19,ESE,104,0.0,1.0,85,0.00,,,0.00,weatherlink.com 1.10,2013-09-06 06:40:00,
2013-09-06 02:55:00,42.8,39.0,30.20,ESE,104,1.0,1.0,86,0.00,,,0.00,weatherlink.com 1.10,2013-09-06 06:55:00,
2013-09-06 03:10:00,42.7,39.0,30.20,North,1,0.0,1.0,87,0.00,,,0.00,weatherlink.com 1.10,2013-09-06 07:10:00,
2013-09-06 03:25:00,42.5,39.0,30.20,North,4,0.0,1.0,86,0.00,,,0.00,weatherlink.com 1.10,2013-09-06 07:25:00,
2013-09-06 03:40:00,42.2,39.0,30.21,ENE,68,0.0,1.0,87,0.00,,,0.00,weatherlink.com 1.10,2013-09-06 07:40:00,
2013-09-06 03:56:00,42.3,39.0,30.21,ENE,70,0.0,1.0,87,0.00,,,0.00,weatherlink.com 1.10,2013-09-06 07:56:00,
2013-09-06 04:11:00,41.9,39.0,30.21,ENE,70,0.0,1.0,88,0.00,,,0.00,weatherlink.com 1.10,2013-09-06 08:11:00,
2013-09-06 04:26:00,41.9,39.0,30.21,East,89,0.0,1.0,88,0.00,,,0.00,weatherlink.com 1.10,2013-09-06 08:26:00,
2013-09-06 04:41:00,42.4,39.0,30.22,ESE,116,1.0,1.0,87,0.00,,,0.00,weatherlink.com 1.10,2013-09-06 08:41:00,
2013-09-06 04:56:00,42.4,39.0,30.22,ESE,115,0.0,1.0,87,0.00,,,0.00,weatherlink.com 1.10,2013-09-06 08:56:00,
2013-09-06 05:11:00,42.5,39.0,30.22,ESE,104,0.0,1.0,87,0.00,,,0.00,weatherlink.com 1.10,2013-09-06 09:11:00,
2013-09-06 05:26:00,42.6,39.0,30.23,East,92,0.0,1.0,86,0.00,,,0.00,weatherlink.com 1.10,2013-09-06 09:26:00,
2013-09-06 05:41:00,42.4,39.0,30.23,East,92,0.0,1.0,86,0.00,,,0.00,weatherlink.com 1.10,2013-09-06 09:41:00,
2013-09-06 05:56:00,42.2,39.0,30.23,East,91,1.0,1.0,87,0.00,,,0.00,weatherlink.com 1.10,2013-09-06 09:56:00,
2013-09-06 06:11:00,41.8,39.0,30.23,East,91,0.0,1.0,88,0.00,,,0.00,weatherlink.com 1.10,2013-09-06 10:11:00,
2013-09-06 06:26:00,41.4,38.0,30.24,East,92,0.0,1.0,89,0.00,,,0.00,weatherlink.com 1.10,2013-09-06 10:26:00,
2013-09-06 06:41:00,41.1,38.0,30.24,East,92,0.0,1.0,90,0.00,,,0.00,weatherlink.com 1.10,2013-09-06 10:41:00,
2013-09-06 06:56:00,41.2,39.0,30.25,East,92,1.0,1.0,90,0.00,,,0.00,weatherlink.com 1.10,2013-09-06 10:56:00,
2013-09-06 07:11:00,41.6,39.0,30.25,East,94,0.0,1.0,89,0.00,,,0.00,weatherlink.com 1.10,2013-09-06 11:11:00,
2013-09-06 07:26:00,42.2,39.0,30.25,East,92,0.0,1.0,88,0.00,,,0.00,weatherlink.com 1.10,2013-09-06 11:26:00,
2013-09-06 07:41:00,42.6,39.0,30.25,East,91,0.0,1.0,87,0.00,,,0.00,weatherlink.com 1.10,2013-09-06 11:41:00,
2013-09-06 07:56:00,43.0,39.0,30.26,WSW,245,0.0,1.0,87,0.00,,,0.00,weatherlink.com 1.10,2013-09-06 11:56:00,
2013-09-06 08:11:00,43.7,40.0,30.26,ENE,74,0.0,1.0,86,0.00,,,0.00,weatherlink.com 1.10,2013-09-06 12:11:00,
2013-09-06 08:26:00,45.3,41.0,30.27,NNE,18,0.0,2.0,84,0.00,,,0.00,weatherlink.com 1.10,2013-09-06 12:26:00,
2013-09-06 08:41:00,46.4,41.0,30.27,NNW,335,0.0,3.0,80,0.00,,,0.00,weatherlink.com 1.10,2013-09-06 12:41:00,
2013-09-06 08:56:00,47.3,41.0,30.27,SW,224,0.0,4.0,79,0.00,,,0.00,weatherlink.com 1.10,2013-09-06 12:56:00,
2013-09-06 09:11:00,48.2,41.0,30.27,North,358,0.0,3.0,76,0.00,,,0.00,weatherlink.com 1.10,2013-09-06 13:11:00,
2013-09-06 09:26:00,48.9,41.0,30.27,SSW,200,1.0,3.0,75,0.00,,,0.00,weatherlink.com 1.10,2013-09-06 13:26:00,
2013-09-06 09:41:00,49.6,42.0,30.27,NW,313,0.0,5.0,75,0.00,,,0.00,weatherlink.com 1.10,2013-09-06 13:41:00,
2013-09-06 09:56:00,50.7,42.0,30.27,NW,316,1.0,3.0,73,0.00,,,0.00,weatherlink.com 1.10,2013-09-06 13:56:00,
2013-09-06 10:11:00,52.0,40.0,30.27,WNW,284,2.0,7.0,63,0.00,,,0.00,weatherlink.com 1.10,2013-09-06 14:11:00,
2013-09-06 10:26:00,52.8,43.0,30.27,NW,314,2.0,6.0,70,0.00,,,0.00,weatherlink.com 1.10,2013-09-06 14:26:00,
2013-09-06 10:41:00,53.1,41.0,30.27,SW,226,2.0,3.0,64,0.00,,,0.00,weatherlink.com 1.10,2013-09-06 14:41:00,
2013-09-06 10:57:00,53.6,40.0,30.27,NW,308,2.0,5.0,61,0.00,,,0.00,weatherlink.com 1.10,2013-09-06 14:57:00,
2013-09-06 11:12:00,55.1,39.0,30.27,NNW,338,0.0,5.0,56,0.00,,,0.00,weatherlink.com 1.10,2013-09-06 15:12:00,
2013-09-06 11:27:00,55.1,39.0,30.26,NW,326,3.0,5.0,55,0.00,,,0.00,weatherlink.com 1.10,2013-09-06 15:27:00,
2013-09-06 11:42:00,56.0,39.0,30.25,SW,232,1.0,5.0,54,0.00,,,0.00,weatherlink.com 1.10,2013-09-06 15:42:00,
2013-09-06 11:57:00,56.8,40.0,30.25,NW,314,2.0,3.0,54,0.00,,,0.00,weatherlink.com 1.10,2013-09-06 15:57:00,
2013-09-06 12:12:00,57.5,40.0,30.24,NW,323,3.0,4.0,53,0.00,,,0.00,weatherlink.com 1.10,2013-09-06 16:12:00,
2013-09-06 12:27:00,58.0,40.0,30.24,WNW,283,1.0,3.0,51,0.00,,,0.00,weatherlink.com 1.10,2013-09-06 16:27:00,
2013-09-06 12:42:00,57.6,40.0,30.24,WNW,300,2.0,5.0,53,0.00,,,0.00,weatherlink.com 1.10,2013-09-06 16:42:00,
2013-09-06 12:57:00,58.6,41.0,30.23,WNW,295,1.0,6.0,52,0.00,,,0.00,weatherlink.com 1.10,2013-09-06 16:57:00,
2013-09-06 13:12:00,59.3,42.0,30.24,West,275,0.0,2.0,53,0.00,,,0.00,weatherlink.com 1.10,2013-09-06 17:12:00,
2013-09-06 13:27:00,60.4,43.0,30.23,NW,305,2.0,3.0,53,0.00,,,0.00,weatherlink.com 1.10,2013-09-06 17:27:00,
2013-09-06 13:42:00,60.3,42.0,30.23,West,266,0.0,3.0,51,0.00,,,0.00,weatherlink.com 1.10,2013-09-06 17:42:00,
2013-09-06 13:57:00,60.6,43.0,30.22,WNW,302,1.0,7.0,52,0.00,,,0.00,weatherlink.com 1.10,2013-09-06 17:57:00,
2013-09-06 14:12:00,60.7,43.0,30.21,NE,34,3.0,5.0,53,0.00,,,0.00,weatherlink.com 1.10,2013-09-06 18:12:00,
2013-09-06 14:27:00,60.8,42.0,30.20,WNW,290,2.0,6.0,50,0.00,,,0.00,weatherlink.com 1.10,2013-09-06 18:27:00,
2013-09-06 14:42:00,61.6,44.0,30.20,NNW,333,3.0,4.0,52,0.00,,,0.00,weatherlink.com 1.10,2013-09-06 18:42:00,
2013-09-06 14:57:00,61.6,42.0,30.19,West,281,1.0,4.0,49,0.00,,,0.00,weatherlink.com 1.10,2013-09-06 18:57:00,
2013-09-06 15:12:00,62.2,42.0,30.19,NNE,23,2.0,4.0,48,0.00,,,0.00,weatherlink.com 1.10,2013-09-06 19:12:00,
2013-09-06 15:27:00,63.4,45.0,30.18,WSW,250,0.0,3.0,51,0.00,,,0.00,weatherlink.com 1.10,2013-09-06 19:27:00,
2013-09-06 15:42:00,63.6,42.0,30.18,SSE,162,3.0,7.0,46,0.00,,,0.00,weatherlink.com 1.10,2013-09-06 19:42:00,
2013-09-06 15:57:00,63.8,42.0,30.18,NW,308,2.0,4.0,46,0.00,,,0.00,weatherlink.com 1.10,2013-09-06 19:57:00,
2013-09-06 16:12:00,63.8,42.0,30.17,SE,125,1.0,6.0,46,0.00,,,0.00,weatherlink.com 1.10,2013-09-06 20:12:00,
2013-09-06 16:27:00,64.3,44.0,30.16,SSW,210,1.0,4.0,48,0.00,,,0.00,weatherlink.com 1.10,2013-09-06 20:27:00,
2013-09-06 16:42:00,65.0,43.0,30.16,NNW,336,1.0,4.0,45,0.00,,,0.00,weatherlink.com 1.10,2013-09-06 20:42:00,
2013-09-06 16:57:00,64.4,44.0,30.16,West,267,1.0,5.0,47,0.00,,,0.00,weatherlink.com 1.10,2013-09-06 20:57:00,
2013-09-06 17:12:00,63.0,44.0,30.16,WSW,256,2.0,3.0,51,0.00,,,0.00,weatherlink.com 1.10,2013-09-06 21:12:00,
2013-09-06 17:27:00,62.3,45.0,30.16,NW,311,2.0,4.0,53,0.00,,,0.00,weatherlink.com 1.10,2013-09-06 21:27:00,
2013-09-06 17:42:00,61.7,45.0,30.16,West,259,1.0,2.0,54,0.00,,,0.00,weatherlink.com 1.10,2013-09-06 21:42:00,
2013-09-06 17:58:00,61.1,45.0,30.16,WSW,242,0.0,4.0,56,0.00,,,0.00,weatherlink.com 1.10,2013-09-06 21:58:00,
2013-09-06 18:13:00,60.6,46.0,30.15,WNW,286,1.0,2.0,58,0.00,,,0.00,weatherlink.com 1.10,2013-09-06 22:13:00,
2013-09-06 18:27:00,61.4,46.0,30.15,West,276,1.0,167.0,57,0.00,,,0.00,weatherlink.com 1.10,2013-09-06 22:27:00,
2013-09-06 18:42:00,60.2,46.0,30.15,SSE,160,0.0,3.0,59,0.00,,,0.00,weatherlink.com 1.10,2013-09-06 22:42:00,
2013-09-06 18:57:00,58.2,46.0,30.14,SSE,161,0.0,1.0,64,0.00,,,0.00,weatherlink.com 1.10,2013-09-06 22:57:00,
2013-09-06 19:12:00,56.0,46.0,30.14,SSE,160,0.0,1.0,70,0.00,,,0.00,weatherlink.com 1.10,2013-09-06 23:12:00,
2013-09-06 19:27:00,54.0,46.0,30.14,SE,143,0.0,1.0,73,0.00,,,0.00,weatherlink.com 1.10,2013-09-06 23:27:00,
2013-09-06 19:43:00,53.4,45.0,30.14,SE,143,0.0,1.0,74,0.00,,,0.00,weatherlink.com 1.10,2013-09-06 23:43:00,
2013-09-06 19:57:00,52.9,45.0,30.14,SE,143,0.0,1.0,75,0.00,,,0.00,weatherlink.com 1.10,2013-09-06 23:57:00,
2013-09-06 20:12:00,52.5,44.0,30.14,SE,143,1.0,15.0,72,0.00,,,0.00,weatherlink.com 1.10,2013-09-07 00:12:00,
2013-09-06 20:28:00,52.7,44.0,30.14,SE,141,1.0,2.0,72,0.00,,,0.00,weatherlink.com 1.10,2013-09-07 00:28:00,
2013-09-06 20:42:00,52.7,44.0,30.14,East,79,0.0,1.0,72,0.00,,,0.00,weatherlink.com 1.10,2013-09-07 00:42:00,
2013-09-06 20:58:00,52.4,44.0,30.14,ESE,104,0.0,2.0,73,0.00,,,0.00,weatherlink.com 1.10,2013-09-07 00:58:00,
2013-09-06 21:13:00,52.1,43.0,30.13,East,94,0.0,1.0,72,0.00,,,0.00,weatherlink.com 1.10,2013-09-07 01:13:00,
2013-09-06 21:28:00,51.7,43.0,30.13,ESE,109,0.0,1.0,73,0.00,,,0.00,weatherlink.com 1.10,2013-09-07 01:28:00,
2013-09-06 21:43:00,51.7,43.0,30.12,NW,321,1.0,2.0,72,0.00,,,0.00,weatherlink.com 1.10,2013-09-07 01:43:00,
2013-09-06 21:58:00,52.3,43.0,30.12,WSW,252,0.0,4.0,71,0.00,,,0.00,weatherlink.com 1.10,2013-09-07 01:58:00,
2013-09-06 22:13:00,53.3,43.0,30.12,WSW,255,3.0,5.0,69,0.00,,,0.00,weatherlink.com 1.10,2013-09-07 02:13:00,
2013-09-06 22:28:00,54.3,43.0,30.11,WNW,286,1.0,3.0,66,0.00,,,0.00,weatherlink.com 1.10,2013-09-07 02:28:00,
2013-09-06 22:43:00,55.0,43.0,30.12,NW,309,1.0,4.0,65,0.00,,,0.00,weatherlink.com 1.10,2013-09-07 02:43:00,
2013-09-06 22:58:00,54.9,44.0,30.11,South,177,0.0,3.0,66,0.00,,,0.00,weatherlink.com 1.10,2013-09-07 02:58:00,
2013-09-06 23:14:00,54.5,44.0,30.11,NW,313,1.0,121.0,67,0.00,,,0.00,weatherlink.com 1.10,2013-09-07 03:14:00,
2013-09-06 23:28:00,54.7,43.0,30.11,NW,309,0.0,7.0,65,0.00,,,0.00,weatherlink.com 1.10,2013-09-07 03:28:00,
2013-09-06 23:43:00,54.6,43.0,30.11,ENE,72,1.0,3.0,66,0.00,,,0.00,weatherlink.com 1.10,2013-09-07 03:43:00,
2013-09-06 23:58:00,55.0,43.0,30.11,WNW,291,0.0,5.0,65,0.00,,,0.00,weatherlink.com 1.10,2013-09-07 03:58:00,